Location: Unspecified
(0.0000°N, 0.0000°E)
Time: 23:57:57
(UTC+00:00)

A-11 Canister half - Pass Details

Date: 12 February 2023
Orbit: 1526 x 1682 km, 47.3° (Epoch: 29 March)

Event Time Altitude Azimuth Distance (km) Brightness Sun altitude
Rises 22:54:26 0° 205° (SSW) 4,866 11.9 -66.1°
Enters shadow 22:56:36 - 201° (SSW) 4,233 11.5 -66.5°
Reaches altitude 10° 22:57:55 10° 197° (SSW) 3,856 - -66.8°
Maximum altitude 23:06:54 40° 131° (SE) 2,189 - -68.5°
Drops below altitude 10° 23:15:33 10° 64° (ENE) 3,736 - -70.1°
Sets 23:18:49 0° 57° (ENE) 4,701 - -70.7°
